TimeMDT,TemperatureF,Dew PointF,Humidity,Sea Level PressureIn,VisibilityMPH,Wind Direction,Wind SpeedMPH,Gust SpeedMPH,PrecipitationIn,Events,Conditions,WindDirDegrees,DateUTC
12:53 AM,37.9,32.0,79,29.72,10.0,South,19.6,28.8,N/A,,Overcast,180,2012-10-23 06:53:00
1:53 AM,37.9,32.0,79,29.73,10.0,South,16.1,24.2,N/A,,Overcast,180,2012-10-23 07:53:00
2:53 AM,37.9,30.9,76,29.74,10.0,SSW,13.8,25.3,N/A,,Overcast,200,2012-10-23 08:53:00
3:53 AM,37.9,30.9,76,29.72,10.0,SSW,9.2,-,N/A,,Overcast,200,2012-10-23 09:53:00
4:53 AM,37.9,30.0,73,29.74,10.0,SSW,11.5,18.4,N/A,,Overcast,210,2012-10-23 10:53:00
5:53 AM,36.0,30.9,82,29.79,10.0,SSW,9.2,-,N/A,,Mostly Cloudy,210,2012-10-23 11:53:00
6:53 AM,36.0,30.9,82,29.81,10.0,SSW,4.6,-,N/A,,Mostly Cloudy,200,2012-10-23 12:53:00
7:53 AM,36.0,28.9,76,29.81,10.0,Calm,Calm,-,N/A,,Clear,0,2012-10-23 13:53:00
8:53 AM,36.0,28.9,76,29.83,10.0,South,10.4,-,N/A,,Partly Cloudy,190,2012-10-23 14:53:00
9:53 AM,39.0,30.0,70,29.83,10.0,South,9.2,-,N/A,,Partly Cloudy,180,2012-10-23 15:53:00
10:53 AM,42.1,28.0,58,29.83,10.0,South,12.7,19.6,N/A,,Partly Cloudy,180,2012-10-23 16:53:00
11:53 AM,43.0,26.1,51,29.83,10.0,SSW,11.5,-,N/A,,Clear,200,2012-10-23 17:53:00
12:53 PM,42.1,26.1,53,29.83,10.0,SSW,12.7,24.2,N/A,,Overcast,200,2012-10-23 18:53:00
1:23 PM,35.6,32.0,87,29.86,2.0,WSW,18.4,29.9,0.01,Snow,Light Snow,240,2012-10-23 19:23:00
1:27 PM,33.8,30.2,87,29.86,0.8,SW,18.4,26.5,0.02,Snow,Light Snow,230,2012-10-23 19:27:00
1:39 PM,33.8,33.8,100,29.85,1.0,SSW,12.7,23.0,0.03,Snow,Light Snow,210,2012-10-23 19:39:00
1:42 PM,33.8,33.8,100,29.84,3.0,SSW,11.5,20.7,0.03,Snow,Light Snow,210,2012-10-23 19:42:00
1:53 PM,36.0,35.1,97,29.87,9.0,SSW,12.7,21.9,0.03,Snow,Light Snow,200,2012-10-23 19:53:00
2:01 PM,39.2,35.6,87,29.84,10.0,SW,16.1,20.7,0.00,,Scattered Clouds,220,2012-10-23 20:01:00
2:53 PM,39.0,30.0,70,29.85,10.0,SW,18.4,24.2,0.00,,Overcast,220,2012-10-23 20:53:00
3:53 PM,41.0,28.9,62,29.87,10.0,SW,24.2,31.1,N/A,,Mostly Cloudy,230,2012-10-23 21:53:00
5:53 PM,39.0,26.1,60,29.91,10.0,SSW,15.0,24.2,N/A,,Clear,210,2012-10-23 23:53:00
6:53 PM,35.1,28.0,76,29.95,10.0,South,10.4,-,N/A,,Clear,190,2012-10-24 00:53:00
7:53 PM,34.0,27.0,75,29.96,10.0,SSW,12.7,20.7,N/A,,Clear,200,2012-10-24 01:53:00
8:53 PM,33.1,26.1,75,29.98,10.0,South,5.8,-,N/A,,Clear,170,2012-10-24 02:53:00
9:53 PM,34.0,25.0,70,29.96,10.0,Calm,Calm,-,N/A,,Clear,0,2012-10-24 03:53:00
10:53 PM,33.1,25.0,72,29.96,10.0,South,9.2,-,N/A,,Clear,190,2012-10-24 04:53:00
11:53 PM,32.0,25.0,75,29.97,10.0,SSW,9.2,-,N/A,,Clear,200,2012-10-24 05:53:00